Location: New Mesquite
(33.1168°N, 96.4336°W)
Time: 11:55:42
(UTC+00:00)

Cosmos 1812 - Pass Details

Date: 08 December 2021
Orbit: 513 x 519 km, 82.5° (Epoch: 23 January)

Event Time Altitude Azimuth Distance (km) Brightness Sun altitude
Rises 23:48:10 0° 189° (S) 2,627 6.8 -6.4°
Reaches altitude 10° 23:50:17 10° 191° (SSW) 1,745 5.9 -6.8°
Maximum altitude 23:54:06 73° 276° (W) 547 3.0 -7.6°
Drops below altitude 10° 23:57:58 10° 2° (N) 1,759 5.2 -8.3°
Sets 00:00:07 0° 4° (N) 2,650 6.0 -8.7°
